Location: Drebach
(50.6670°N, 13.0330°E)
Time: 06:46:37
(UTC+01:00)

ISS - Pass Details

Date: 25 January 2021
Orbit: 417 x 422 km, 51.6° (Epoch: 08 March)

Event Time Altitude Azimuth Distance (km) Brightness Sun altitude
Rises 19:34:17 0° 273° (W) 2,373 1.4 -26.1°
Reaches altitude 10° 19:36:23 10° 275° (W) 1,509 0.1 -26.4°
Enters shadow 19:38:02 26° 280° (W) 867 -1.5 -26.6°
